SDM601 UNKL-UNNT

Flight info

Callsign SDM601
Flight time N/A
Altitude 38000
Route APRUS2F APRUS B926 NATIR NATIR1N
Aircraft A320/M-SDE3FGHIRWY/LB1

Departure

Time 2026-04-30 06:39
Airport Krasnoyarsk International Airport (UNKL)

Arrival

Time N/A
Airport Novosibirsk Tolmachevo Airport (UNNT)
Time Latitude Longitude Altitude Speed Heading
2026-04-30 06:28 56.17946 92.48542 957 ft 0 kts 23°
2026-04-30 06:30 56.17943 92.48540 957 ft 2 kts 23°
2026-04-30 06:30 56.17928 92.48529 954 ft 2 kts 21°
2026-04-30 06:31 56.17913 92.48519 956 ft 2 kts 18°
2026-04-30 06:31 56.17897 92.48510 955 ft 2 kts 12°
2026-04-30 06:31 56.17881 92.48505 953 ft 2 kts 357°
2026-04-30 06:31 56.17865 92.48513 955 ft 2 kts 301°
2026-04-30 06:32 56.17861 92.48525 953 ft 0 kts 291°
2026-04-30 06:33 56.17861 92.48510 953 ft 8 kts 270°
2026-04-30 06:33 56.17781 92.48419 955 ft 16 kts 197°
2026-04-30 06:34 56.17714 92.48518 954 ft 13 kts 114°
2026-04-30 06:34 56.17681 92.48655 955 ft 11 kts 113°
2026-04-30 06:34 56.17639 92.48823 955 ft 21 kts 114°
2026-04-30 06:34 56.17567 92.49117 955 ft 30 kts 113°
2026-04-30 06:35 56.17482 92.49469 955 ft 31 kts 114°
2026-04-30 06:35 56.17393 92.49833 956 ft 32 kts 112°
2026-04-30 06:35 56.17311 92.50218 955 ft 34 kts 112°
2026-04-30 06:35 56.17218 92.50611 957 ft 34 kts 113°
2026-04-30 06:36 56.17142 92.50925 957 ft 21 kts 113°
2026-04-30 06:36 56.17086 92.51159 957 ft 20 kts 113°
2026-04-30 06:36 56.17028 92.51402 955 ft 25 kts 114°
2026-04-30 06:36 56.16959 92.51689 957 ft 26 kts 112°
2026-04-30 06:37 56.16887 92.51970 957 ft 20 kts 134°
2026-04-30 06:37 56.16833 92.52016 955 ft 0 kts 172°
2026-04-30 06:37 56.16828 92.52017 953 ft 6 kts 173°
2026-04-30 06:38 56.16676 92.52025 953 ft 14 kts 206°
2026-04-30 06:38 56.16671 92.51956 955 ft 6 kts 287°
2026-04-30 06:38 56.16732 92.51699 955 ft 56 kts 292°
2026-04-30 06:38 56.16968 92.50694 957 ft 118 kts 292°
2026-04-30 06:39 56.17357 92.49063 1093 ft 154 kts 291°
2026-04-30 06:39 56.17817 92.47265 1706 ft 161 kts 291°
2026-04-30 06:39 56.18262 92.45396 2459 ft 163 kts 291°
2026-04-30 06:39 56.18721 92.43495 3093 ft 171 kts 292°
2026-04-30 06:40 56.19211 92.41412 3421 ft 194 kts 291°
2026-04-30 06:40 56.19756 92.39063 3813 ft 218 kts 292°
2026-04-30 06:40 56.20374 92.36405 4242 ft 242 kts 291°
2026-04-30 06:40 56.21042 92.33539 5024 ft 252 kts 292°
2026-04-30 06:41 56.21670 92.30575 5947 ft 255 kts 282°
2026-04-30 06:41 56.21595 92.27377 6808 ft 260 kts 256°
2026-04-30 06:41 56.20993 92.24340 7735 ft 263 kts 249°
2026-04-30 06:41 56.20212 92.21337 8622 ft 268 kts 246°
2026-04-30 06:42 56.19396 92.18289 9484 ft 273 kts 247°
2026-04-30 06:42 56.18594 92.15156 10315 ft 278 kts 249°
2026-04-30 06:42 56.17804 92.11868 10736 ft 298 kts 250°
2026-04-30 06:42 56.17002 92.08334 11051 ft 318 kts 251°
2026-04-30 06:43 56.16178 92.04575 11719 ft 325 kts 251°
2026-04-30 06:43 56.15357 92.00768 12489 ft 330 kts 252°
2026-04-30 06:43 56.14527 91.96903 13284 ft 333 kts 252°
2026-04-30 06:43 56.13693 91.93000 14058 ft 337 kts 252°
2026-04-30 06:44 56.12846 91.89061 14744 ft 340 kts 252°
2026-04-30 06:44 56.11983 91.85086 15417 ft 344 kts 252°
2026-04-30 06:44 56.11109 91.81064 16087 ft 347 kts 252°
2026-04-30 06:44 56.10228 91.77010 16753 ft 351 kts 253°
2026-04-30 06:45 56.09348 91.72954 17390 ft 355 kts 253°
2026-04-30 06:45 56.08448 91.68815 18055 ft 358 kts 253°
2026-04-30 06:45 56.07535 91.64642 18713 ft 361 kts 253°
2026-04-30 06:45 56.06608 91.60422 19278 ft 364 kts 253°
2026-04-30 06:46 56.05678 91.56184 19850 ft 367 kts 253°
2026-04-30 06:46 56.04752 91.51971 20422 ft 370 kts 253°
2026-04-30 06:46 56.03802 91.47664 20997 ft 373 kts 253°
2026-04-30 06:46 56.02844 91.43330 21521 ft 377 kts 253°
2026-04-30 06:47 56.01872 91.38937 22080 ft 380 kts 253°
2026-04-30 06:47 56.00903 91.34578 22633 ft 383 kts 253°
2026-04-30 06:47 55.99910 91.30124 23192 ft 386 kts 253°
2026-04-30 06:47 55.98914 91.25648 23744 ft 389 kts 253°
2026-04-30 06:48 55.98120 91.21034 24193 ft 387 kts 262°
2026-04-30 06:48 55.97575 91.16298 24633 ft 389 kts 263°
2026-04-30 06:48 55.97027 91.11589 25028 ft 392 kts 262°
2026-04-30 06:48 55.96465 91.06803 25434 ft 395 kts 262°
2026-04-30 06:49 55.95894 91.01964 25839 ft 398 kts 262°
2026-04-30 06:49 55.95323 90.97119 26235 ft 400 kts 262°
2026-04-30 06:49 55.94745 90.92239 26624 ft 403 kts 262°
2026-04-30 06:49 55.94162 90.87334 27012 ft 405 kts 262°
2026-04-30 06:50 55.93575 90.82455 27392 ft 408 kts 261°
2026-04-30 06:50 55.92975 90.77485 27766 ft 410 kts 261°
2026-04-30 06:50 55.92371 90.72487 28138 ft 413 kts 261°
2026-04-30 06:50 55.91761 90.67453 28501 ft 415 kts 261°
2026-04-30 06:51 55.91153 90.62450 28854 ft 417 kts 261°
2026-04-30 06:51 55.90531 90.57354 29196 ft 420 kts 261°
2026-04-30 06:51 55.89904 90.52240 29535 ft 422 kts 261°
2026-04-30 06:51 55.89283 90.47171 29862 ft 424 kts 261°
2026-04-30 06:52 55.88647 90.42020 30175 ft 426 kts 261°
2026-04-30 06:52 55.88007 90.36853 30456 ft 428 kts 261°
2026-04-30 06:52 55.87363 90.31659 30715 ft 430 kts 260°
2026-04-30 06:52 55.86716 90.26446 30971 ft 431 kts 260°
2026-04-30 06:53 55.86061 90.21221 31216 ft 433 kts 260°
2026-04-30 06:53 55.85394 90.15957 31454 ft 435 kts 260°
2026-04-30 06:53 55.84739 90.10763 31692 ft 436 kts 260°
2026-04-30 06:53 55.84074 90.05509 32021 ft 435 kts 260°
2026-04-30 06:54 55.83407 90.00255 32348 ft 434 kts 260°
2026-04-30 06:54 55.82741 89.95003 32670 ft 433 kts 259°
2026-04-30 06:54 55.82073 89.89789 33008 ft 431 kts 259°
2026-04-30 06:54 55.81398 89.84593 33336 ft 431 kts 259°
2026-04-30 06:55 55.80735 89.79465 33666 ft 430 kts 259°
2026-04-30 06:55 55.80065 89.74284 34004 ft 429 kts 259°
2026-04-30 06:55 55.79395 89.69104 34328 ft 428 kts 259°
2026-04-30 06:55 55.78724 89.63938 34602 ft 428 kts 259°
2026-04-30 06:56 55.78060 89.58835 34877 ft 427 kts 259°
2026-04-30 06:56 55.77391 89.53701 35139 ft 427 kts 259°
2026-04-30 06:56 55.76715 89.48563 35399 ft 426 kts 259°
2026-04-30 06:56 55.76037 89.43434 35647 ft 426 kts 259°
2026-04-30 06:57 55.75356 89.38306 35890 ft 426 kts 259°
2026-04-30 06:57 55.74671 89.33185 36129 ft 425 kts 259°
2026-04-30 06:57 55.73993 89.28111 36362 ft 425 kts 259°
2026-04-30 06:57 55.73313 89.22998 36591 ft 425 kts 259°
2026-04-30 06:58 55.72630 89.17897 36804 ft 425 kts 259°
2026-04-30 06:58 55.71944 89.12801 37028 ft 424 kts 259°
2026-04-30 06:58 55.71256 89.07693 37229 ft 424 kts 259°
2026-04-30 06:58 55.70571 89.02668 37434 ft 424 kts 259°
2026-04-30 06:59 55.69878 88.97592 37631 ft 423 kts 259°
2026-04-30 06:59 55.69180 88.92508 37827 ft 423 kts 259°
2026-04-30 06:59 55.68485 88.87425 38002 ft 423 kts 259°
2026-04-30 06:59 55.67795 88.82358 38201 ft 422 kts 259°
2026-04-30 07:00 55.67103 88.77308 38266 ft 422 kts 259°
2026-04-30 07:00 55.65706 88.67268 38269 ft 421 kts 259°
2026-04-30 07:01 55.64291 88.57179 38269 ft 421 kts 259°
2026-04-30 07:01 55.62891 88.47087 38266 ft 421 kts 259°
2026-04-30 07:02 55.61489 88.37062 38267 ft 421 kts 259°
2026-04-30 07:02 55.60060 88.26987 38268 ft 422 kts 258°
2026-04-30 07:03 55.58637 88.16980 38281 ft 422 kts 258°
2026-04-30 07:03 55.57196 88.06915 38286 ft 422 kts 258°
2026-04-30 07:04 55.55750 87.96916 38287 ft 421 kts 258°
2026-04-30 07:04 55.54296 87.86879 38287 ft 421 kts 258°
2026-04-30 07:05 55.52094 87.71885 38279 ft 421 kts 258°
2026-04-30 07:05 55.50619 87.61860 38285 ft 421 kts 258°
2026-04-30 07:06 55.49139 87.51869 38273 ft 421 kts 258°
2026-04-30 07:06 55.47642 87.41951 38279 ft 421 kts 257°
2026-04-30 07:07 55.46125 87.31962 38284 ft 421 kts 257°
2026-04-30 07:07 55.44613 87.21979 38276 ft 421 kts 257°
2026-04-30 07:08 55.43095 87.12074 38287 ft 420 kts 257°
2026-04-30 07:08 55.41560 87.02126 38290 ft 420 kts 257°
2026-04-30 07:09 55.40034 86.92264 38290 ft 419 kts 257°
2026-04-30 07:09 55.38487 86.82353 38295 ft 419 kts 257°
2026-04-30 07:10 55.36945 86.72508 38296 ft 419 kts 257°
2026-04-30 07:10 55.35393 86.62619 38289 ft 419 kts 257°
2026-04-30 07:11 55.33833 86.52825 38288 ft 418 kts 256°
2026-04-30 07:11 55.32246 86.42951 38292 ft 418 kts 257°
2026-04-30 07:12 55.30674 86.33160 38294 ft 418 kts 257°
2026-04-30 07:12 55.29094 86.23320 38287 ft 417 kts 256°
2026-04-30 07:13 55.28308 86.18478 38271 ft 405 kts 256°
2026-04-30 07:13 55.27547 86.13807 38262 ft 391 kts 256°
2026-04-30 07:13 55.26831 86.04656 38276 ft 379 kts 281°
2026-04-30 07:14 55.27640 86.00271 38274 ft 378 kts 297°
2026-04-30 07:14 55.29156 85.96490 38274 ft 381 kts 314°
2026-04-30 07:14 55.31261 85.93647 38277 ft 386 kts 330°
2026-04-30 07:14 55.33770 85.92031 38276 ft 393 kts 347°
2026-04-30 07:15 55.36520 85.91847 38275 ft 401 kts
2026-04-30 07:15 55.39231 85.93237 38275 ft 411 kts 24°
2026-04-30 07:15 55.41566 85.96146 38270 ft 420 kts 43°
2026-04-30 07:15 55.43261 86.00354 38258 ft 426 kts 64°
2026-04-30 07:16 55.45053 86.10369 38247 ft 431 kts 73°
2026-04-30 07:16 55.46459 86.20668 38256 ft 433 kts 75°
2026-04-30 07:17 55.46777 86.24158 38256 ft 435 kts 87°
2026-04-30 07:17 55.46125 86.31082 38232 ft 434 kts 115°
2026-04-30 07:17 55.42219 86.38800 38276 ft 425 kts 157°
2026-04-30 07:18 55.40407 86.40078 38277 ft 421 kts 171°
2026-04-30 07:18 55.37524 86.40573 38279 ft 413 kts 191°
2026-04-30 07:18 55.34773 86.39395 38279 ft 403 kts 210°
2026-04-30 07:18 55.32428 86.36816 38279 ft 394 kts 227°
2026-04-30 07:19 55.30689 86.33184 38279 ft 387 kts 244°
2026-04-30 07:19 55.29678 86.28870 38278 ft 381 kts 258°
2026-04-30 07:19 55.29017 86.24356 38271 ft 382 kts 258°
2026-04-30 07:20 55.27715 86.15339 38274 ft 383 kts 258°
2026-04-30 07:20 55.26808 86.06194 38259 ft 378 kts 276°
2026-04-30 07:20 55.27368 86.01704 38257 ft 375 kts 292°
2026-04-30 07:21 55.28662 85.97805 38251 ft 376 kts 309°
2026-04-30 07:21 55.30614 85.94725 38247 ft 380 kts 326°
2026-04-30 07:21 55.33038 85.92836 38244 ft 385 kts 343°
2026-04-30 07:21 55.35733 85.92371 38239 ft 393 kts
2026-04-30 07:22 55.40789 85.96152 38275 ft 417 kts 40°
2026-04-30 07:22 55.42582 86.00227 38275 ft 427 kts 62°
2026-04-30 07:22 55.43618 86.05179 38281 ft 433 kts 71°
2026-04-30 07:23 55.45182 86.15479 38275 ft 435 kts 74°
2026-04-30 07:23 55.46177 86.25932 38265 ft 437 kts 95°
2026-04-30 07:24 55.45451 86.31113 38276 ft 437 kts 117°
2026-04-30 07:24 55.43764 86.35502 38265 ft 432 kts 139°
2026-04-30 07:24 55.41358 86.38526 38254 ft 422 kts 160°
2026-04-30 07:24 55.38600 86.39876 38275 ft 414 kts 181°
2026-04-30 07:25 55.35765 86.39503 38276 ft 406 kts 201°
2026-04-30 07:25 55.33211 86.37537 38273 ft 397 kts 220°
2026-04-30 07:25 55.31216 86.34307 38274 ft 388 kts 238°
2026-04-30 07:25 55.29929 86.30199 38274 ft 382 kts 255°
2026-04-30 07:26 55.28573 86.21197 38273 ft 382 kts 258°
2026-04-30 07:26 55.27255 86.12167 38267 ft 382 kts 258°
2026-04-30 07:27 55.26796 86.07695 38258 ft 378 kts 271°
2026-04-30 07:27 55.27093 86.03147 38259 ft 375 kts 287°
2026-04-30 07:27 55.28166 85.99001 38256 ft 375 kts 304°
2026-04-30 07:27 55.29931 85.95622 38251 ft 377 kts 321°
2026-04-30 07:28 55.32224 85.93352 38246 ft 383 kts 338°
2026-04-30 07:28 55.34853 85.92432 38242 ft 390 kts 355°
2026-04-30 07:28 55.37567 85.93051 38239 ft 399 kts 15°
2026-04-30 07:28 55.40049 85.95236 38278 ft 411 kts 34°
2026-04-30 07:29 55.42060 85.98898 38272 ft 423 kts 55°
2026-04-30 07:29 55.43280 86.03658 38283 ft 431 kts 73°
2026-04-30 07:29 55.45303 86.13616 38284 ft 432 kts 47°
2026-04-30 07:30 55.50146 86.18955 38276 ft 416 kts
2026-04-30 07:30 55.53021 86.19570 38274 ft 414 kts 356°
2026-04-30 07:30 55.55901 86.19237 38275 ft 413 kts 345°
2026-04-30 07:31 55.58648 86.17783 38276 ft 411 kts 331°
2026-04-30 07:31 55.61013 86.15116 38273 ft 408 kts 315°
2026-04-30 07:31 55.62855 86.11322 38268 ft 407 kts 300°
2026-04-30 07:31 55.64039 86.06782 38263 ft 407 kts 285°
2026-04-30 07:32 55.64510 86.01833 38266 ft 409 kts 271°
2026-04-30 07:32 55.64231 85.96820 38269 ft 412 kts 257°
2026-04-30 07:32 55.63202 85.92078 38268 ft 416 kts 243°
2026-04-30 07:33 55.60164 85.83284 38271 ft 419 kts 241°
2026-04-30 07:33 55.57099 85.74519 38275 ft 419 kts 241°
2026-04-30 07:34 55.54049 85.65802 38280 ft 419 kts 241°
2026-04-30 07:34 55.50971 85.57068 38281 ft 420 kts 241°
2026-04-30 07:35 55.47883 85.48340 38268 ft 419 kts 241°
2026-04-30 07:35 55.46339 85.43974 38101 ft 420 kts 241°
2026-04-30 07:35 55.44801 85.39619 37820 ft 419 kts 241°
2026-04-30 07:35 55.43257 85.35273 37536 ft 419 kts 241°
2026-04-30 07:36 55.41712 85.30926 37267 ft 419 kts 241°
2026-04-30 07:36 55.40165 85.26571 36982 ft 416 kts 241°
2026-04-30 07:36 55.38636 85.22278 36528 ft 411 kts 241°
2026-04-30 07:36 55.37123 85.18047 36019 ft 407 kts 241°
2026-04-30 07:37 55.35617 85.13848 35527 ft 403 kts 241°
2026-04-30 07:37 55.34123 85.09696 34995 ft 401 kts 241°
2026-04-30 07:37 55.32652 85.05617 34478 ft 399 kts 241°
2026-04-30 07:37 55.31173 85.01518 33959 ft 395 kts 241°
2026-04-30 07:38 55.29714 84.97477 33643 ft 390 kts 241°
2026-04-30 07:38 55.28265 84.93459 33282 ft 388 kts 241°
2026-04-30 07:38 55.26822 84.89464 32911 ft 386 kts 241°
2026-04-30 07:38 55.25389 84.85507 32553 ft 384 kts 241°
2026-04-30 07:39 55.23963 84.81569 32196 ft 381 kts 241°
2026-04-30 07:39 55.22543 84.77667 31854 ft 379 kts 241°
2026-04-30 07:39 55.21124 84.73779 31490 ft 377 kts 241°
2026-04-30 07:39 55.19802 84.69841 31112 ft 372 kts 248°
2026-04-30 07:40 55.18836 84.65675 30606 ft 369 kts 254°
2026-04-30 07:40 55.18026 84.61479 30056 ft 368 kts 254°
2026-04-30 07:40 55.17205 84.57257 29521 ft 365 kts 254°
2026-04-30 07:40 55.16384 84.53070 29019 ft 362 kts 254°
2026-04-30 07:41 55.15566 84.48921 28522 ft 360 kts 253°
2026-04-30 07:41 55.14748 84.44798 28033 ft 357 kts 253°
2026-04-30 07:41 55.13935 84.40705 27551 ft 355 kts 253°
2026-04-30 07:41 55.13128 84.36641 27066 ft 352 kts 253°
2026-04-30 07:42 55.12325 84.32607 26612 ft 350 kts 253°
2026-04-30 07:42 55.11528 84.28607 26159 ft 347 kts 253°
2026-04-30 07:42 55.10734 84.24632 25724 ft 345 kts 253°
2026-04-30 07:42 55.09948 84.20689 25288 ft 343 kts 253°
2026-04-30 07:43 55.09165 84.16773 24863 ft 340 kts 253°
2026-04-30 07:43 55.08383 84.12882 24430 ft 339 kts 253°
2026-04-30 07:43 55.07602 84.09015 23994 ft 337 kts 253°
2026-04-30 07:43 55.06826 84.05168 23518 ft 335 kts 253°
2026-04-30 07:44 55.06057 84.01345 23062 ft 333 kts 253°
2026-04-30 07:44 55.05292 83.97542 22635 ft 331 kts 253°
2026-04-30 07:44 55.04527 83.93769 22193 ft 329 kts 252°
2026-04-30 07:44 55.03760 83.90016 21753 ft 327 kts 252°
2026-04-30 07:45 55.02997 83.86286 21310 ft 326 kts 252°
2026-04-30 07:45 55.02237 83.82570 20858 ft 325 kts 252°
2026-04-30 07:45 55.01475 83.78864 20414 ft 324 kts 252°
2026-04-30 07:45 55.00708 83.75173 19970 ft 324 kts 252°
2026-04-30 07:46 54.99939 83.71482 19518 ft 324 kts 252°
2026-04-30 07:46 54.99172 83.67797 19072 ft 324 kts 252°
2026-04-30 07:46 54.98402 83.64093 18632 ft 324 kts 252°
2026-04-30 07:46 54.97636 83.60402 18134 ft 324 kts 252°
2026-04-30 07:47 54.96875 83.56748 17698 ft 323 kts 252°
2026-04-30 07:47 54.95491 83.50128 16913 ft 320 kts 252°
2026-04-30 07:47 54.95061 83.48080 16658 ft 320 kts 252°
2026-04-30 07:48 54.94296 83.44447 16231 ft 319 kts 252°
2026-04-30 07:48 54.93533 83.40830 15820 ft 318 kts 252°
2026-04-30 07:48 54.92771 83.37220 15389 ft 317 kts 251°
2026-04-30 07:48 54.92010 83.33616 14961 ft 317 kts 251°
2026-04-30 07:49 54.91249 83.30019 14535 ft 317 kts 251°
2026-04-30 07:49 54.90497 83.26465 14108 ft 317 kts 251°
2026-04-30 07:49 54.89736 83.22875 13631 ft 316 kts 251°
2026-04-30 07:49 54.88974 83.19299 13186 ft 314 kts 251°
2026-04-30 07:50 54.88215 83.15751 12747 ft 313 kts 251°
2026-04-30 07:50 54.87471 83.12266 12314 ft 311 kts 251°
2026-04-30 07:50 54.86949 83.08804 11901 ft 308 kts 264°
2026-04-30 07:50 54.86916 83.05118 11451 ft 306 kts 276°
2026-04-30 07:51 54.87270 83.01451 10796 ft 311 kts 281°